Showing default

COSMOS 2418 (GLONASS), 28916

Orbit data source: Space-Track

COSMOS 2418 (GLONASS), 28916 is a Commonwealth of Independent States-origin payload satellite in MEO that was launched on Sun, 25 Dec 2005 UTC via a PROTON-K/DM-2 launch vehicle from the Tyuratam Missile And Space Complex (TTMTR). Payload-class satellites include a variety of spacecraft equipped with specific instruments for various scientific and technological missions. These include communications satellites like Starlink; space stations such as the ISS; scientific satellites like the Hubble; Earth observation satellites from companies like Planet Labs, Umbra, and HawkEye 360; GPS; miniature CubeSats for education and research; and military/defense satellites.

Loading next visibility...
Identifier
28916, 2005-050B
Orbit
MEO
Country
Flag of CISCIS
Related business
Manufacturer
NPO PM
Mission
Non-operational Defense Navigation
Bus & Motor
URAGAN, Unknown motor
Mass
1,450 kg wet, ~1,200 kg dry
Launch date (UTC)
2005-12-25 (20 years ago)
Launch vehicle
PROTON-K/DM-2
Launch site
Tyuratam Missile And Space Complex (TTMTR)
Object type
Payload
Rocket body
Debris
Shape & HBR
Cyl + 1 Arm + 2 Pan, 3.9 m
Radar Cross Section
8.145 m², Large (>1 m²)

Expand to show TLE details & history
Last TLE update: 2 days ago

TLE from 2 days ago
0 COSMOS 2418 (GLONASS)
1 28916U 05050B   25259.60156275 -.00000059  00000-0  00000-0 0  9996
2 28916  65.7417 325.4766 0012847 275.3582  87.9966  2.13106288153437
Epoch: 2025-09-16T14:26Z
TLE epoch observation values (Epoch: 2025-09-16T14:26:15.021Z)
Latitude
3.13964°
Longitude
114.5471°
Altitude
19,128.662 km
Speed
3.953 km/s
True Right ascension
21h 47m 35s
True Declination
3° 08' 04"
Sunlit
Object was in daylight at epoch
Visualization orbit readout
Latitude
Unknown
Longitude
Unknown
Altitude
Unknown
Speed
Unknown
Apparent Right ascension
Unknown
Apparent Declination
Unknown
Sunlit
N/A
Visualization observer readout
Local Sidereal Time
20:37:16
Azimuth
Unknown
Elevation
Unknown
Doppler factor
Unknown
Orbital elements
Apogee altitude
19,161.904 km
Perigee altitude
19,096.366 km
Semi-major axis
25,507.272 km
Eccentricity
0.00128
Inclination
65.7417°
RAAN
325.4766°
Arg. of periapsis
275.3582°
True anomaly
88.14373°
Mean anomaly
87.9966°
Eccentric anomaly
88.07017°
Mean motion
0.53278 °/min
Orbital period
675.7 mins
BSTAR
0
Loading maneuver chart data...
Computing Atmospheric mass density...
Loading historical data...
Loading historical data...
Loading historical data...
Loading historical data...
Loading historical data...
Loading historical data...
Loading historical data...

Documentation

Showing up to 5 results
|